• Processing (Info)

  • MPEC 2013-L67 : 2006 UD63 = 2013 LJ25

    The following Minor Planet Electronic Circular may be linked-to from your own Web pages, but must not otherwise be redistributed electronically.

    A form allowing access to any MPEC is at the bottom of this page.


    Read MPEC 2013-L66 Read MPEC 2013-L68


    M.P.E.C. 2013-L67                                Issued 2013 June 14, 14:57 UT
    
         The Minor Planet Electronic Circulars contain information on unusual
             minor planets and routine data on comets.  They are published
       on behalf of Commission 20 of the International Astronomical Union by the
              Minor Planet Center, Smithsonian Astrophysical Observatory,
                              Cambridge, MA 02138, U.S.A.
    
                 Prepared using the Tamkin Foundation Computer Network
    
                                  MPC@CFA.HARVARD.EDU
                URL https://www.minorplanetcenter.net/    ISSN 1523-6714
    
                                 2006 UD63 = 2013 LJ25
    
                               Revision to MPEC 2006-U46
    
    Orbital elements:
    2006 UD63 = 2013 LJ25                                    Earth MOID = 0.2348 AU
    Id. A. Lowe
    Epoch 2013 Apr. 18.0 TT = JDT 2456400.5                 MPC
    M 347.30691              (2000.0)            P               Q
    n   0.27856031     Peri.  135.20456     +0.24704019     +0.96670630
    a   2.3219697      Node   148.91764     -0.92132628     +0.25565621
    e   0.4700030      Incl.    7.42413     -0.30021497     +0.01090058
    P   3.54           H   18.8           G   0.15           U   3
    Residuals in seconds of arc
    061004 705  0.2-  0.2-    061023 711  1.4-  0.4-    130610 H01  0.5-  0.0
    061004 705  0.2-  0.0     130608 G96  0.2-  0.2-    130610 H36  0.6+  0.1+
    061004 705  0.8-  0.0     130608 G96  0.0   0.3-    130610 H01  0.2-  0.1+
    061021 G96  0.1+  0.4-    130608 G96  0.2+  0.1-    130610 G96  0.1+  0.2-
    061021 G96  0.5+  0.8-    130608 G96  0.3-  0.0     130610 G96  0.1-  0.1+
    061021 G96  0.3+  0.1-    130608 G96  0.3-  0.1+    130610 H01  0.5-  0.1-
    061021 G96  0.9-  0.0     130608 G96  0.1-  0.1+    130610 G96  0.7-  0.0
    061021 J95  0.1-  0.3-    130608 G96  0.1-  0.1+    130610 G96  0.0   0.1-
    061021 J95  0.3-  0.2-    130608 G96  0.7+  0.2+    130610 F65  0.1+  0.2-
    061021 J95  1.1+  0.4+    130609 291  0.1+  0.6+    130610 F65  0.1+  0.3-
    061022 G96  0.7-  0.2+    130609 291  0.0   0.1+    130611 K91  0.2+  0.1-
    061022 G96  0.1+  0.0     130609 291  0.1-  0.4+    130611 K91  0.1+  0.0
    061022 291  0.1-  0.1+    130609 G96  0.3+  0.0     130611 K91  0.1-  0.0
    061022 291  0.1-  0.2+    130609 G96  0.3-  0.2-    130611 G96  0.1-  0.1-
    061022 291  0.6-  0.1+    130609 G96  0.2-  0.1+    130611 G96  0.3+  0.2-
    061022 G96  0.2-  0.1+    130609 G96  0.0   0.0     130611 G96  0.0   0.0
    061022 G96  0.5-  0.1-    130609 H01  0.1-  0.1+    130611 G96  0.7+  0.2-
    061023 734  0.2+  1.2+    130609 H01  0.1+  0.0     130613 807  0.1+  0.3-
    061023 734  0.4+  0.2-    130609 H01  0.0   0.2+    130613 807  0.1+  0.3-
    061023 734  1.1+  1.1-    130609 H01  0.1-  0.0     130613 807  0.3+  0.4-
    061023 711 (1.7-  0.1+)   130610 H36  0.2+  0.0
    061023 711  0.5+  0.8+    130610 H01  0.0   0.1+
    
    Ephemeris:
    2006 UD63                a,e,i = 2.32, 0.47, 7                   q = 1.2306
    Date    TT    R. A. (2000) Decl.     Delta      r     Elong.  Phase     V
    2013 05 15    21 26 04.8 -03 01 24   0.7078  1.2463    91.2    54.2    20.5
    ...
    2013 05 30    22 19 59.6 +00 28 08   0.6722  1.2312    91.5    55.4    20.4
    ...
    2013 06 07    22 46 57.6 +02 05 43   0.6591  1.2315    92.2    55.4    20.4
    ...
    2013 06 13    23 06 07.2 +03 09 17   0.6511  1.2356    93.1    55.2    20.3
    2013 06 14    23 09 12.9 +03 18 59   0.6499  1.2366    93.3    55.1    20.3
    2013 06 15    23 12 16.9 +03 28 24   0.6487  1.2377    93.5    55.0    20.3
    ...
    2013 06 21    23 30 02.5 +04 18 58   0.6421  1.2461    94.7    54.4    20.3
    ...
    2013 06 29    23 51 54.8 +05 09 37   0.6341  1.2620    97.0    53.1    20.3
    ...
    2013 07 14    00 26 27.1 +05 47 28   0.6196  1.3055   103.2    49.3    20.2
    
    Gareth V. Williams           (C) Copyright 2013 MPC           M.P.E.C. 2013-L67
    

    Read MPEC 2013-L66 Read MPEC 2013-L68


    MPEC number:

    Enter an MPEC number in one of the following forms:

    • 1997-B01 (the full form)
    • J97B01 (the packed version of the full form)
    • B01 (the abbreviated form)